Regional Weather Roundup
Issued by NWS

Home | Current Version | Previous Version | Text Only | Print | Product List | Glossary Off
Versions: 1 2 3 4 5 6 7 8 9 10 11 12 13 14 15 16 17 18 19 20 21 22 23 24 25 26 27 28 29 30 31 32 33 34 35 36 37 38 39 40 41 42 43 44 45 46 47 48 49 50

000
ASUS44 KMEG 161500
RWRTN
TENNESSEE HOURLY STATE WEATHER ROUNDUP
NATIONAL WEATHER SERVICE MEMPHIS TN
900 AM CST MON JAN 16 2017

TNZ002-004-019-021-049-052-054-088>092-161600-
WEST TENNESSEE

CITY           SKY/WX    TMP DP  RH WIND       PRES   REMARKS
MEMPHIS INTL   CLOUDY    59  57  93 S8        30.15R
NWS MEMPHIS      N/A     56 N/A N/A MISG        N/A
JACKSON        CLOUDY    60  55  83 SE6       30.17R
DYERSBURG      CLOUDY    55  52  88 S7        30.15R
UNION CITY     PTSUNNY  N/A N/A N/A CALM      30.15R
PARIS          CLOUDY    48  48 100 SE8       30.18S
$$

TNZ008-025-027-028-033-062-065-066-161600-
NORTH MIDDLE TENNESSEE

CITY           SKY/WX    TMP DP  RH WIND       PRES   REMARKS
NASHVILLE      CLOUDY    54  51  90 CALM      30.25R
CLARKSVILLE    CLOUDY    48  46  93 SE3       30.22R
SMYRNA         PTSUNNY   54  51  90 CALM      30.25R
CROSSVILLE     CLOUDY    55  51  86 S6        30.30R
$$

TNZ061-075-076-078-094-096-097-161600-
SOUTH MIDDLE TENNESSEE

CITY           SKY/WX    TMP DP  RH WIND       PRES   REMARKS
TULLAHOMA      PTSUNNY   57  52  82 CALM      30.27R
WINCHESTER     CLOUDY    59  52  77 CALM      30.27R
COLUMBIA       CLOUDY   N/A N/A N/A CALM      30.22R
SHELBYVILLE    PTSUNNY   63  54  72 SE6       30.26R
$$

TNZ017-018-042-046-047-161600-
NORTHEAST TENNESSEE

CITY           SKY/WX    TMP DP  RH WIND       PRES   REMARKS
TRI CITIES     PTSUNNY   55  53  93 CALM      30.33R
$$

TNZ012-013-036-069-073-074-161600-
CENTRAL EAST TENNESSEE

CITY           SKY/WX    TMP DP  RH WIND       PRES   REMARKS
KNOXVILLE      FOG       54  53  97 CALM      30.31R VSB 3/4
OAK RIDGE      CLOUDY    56  53  90 CALM      30.33R
GATLINBURG     CLOUDY    50  50 100 CALM      30.32R
$$

TNZ083-085-099-161600-
SOUTHEAST TENNESSEE

CITY           SKY/WX    TMP DP  RH WIND       PRES   REMARKS
CHATTANOOGA    CLOUDY    54  52  93 NE3       30.31R FOG
$$

SKY/WX REPORTED AS FAIR MEANS FEW OR NO CLOUDS BELOW
12 THOUSAND FEET.





USA.gov is the U.S. government's official web portal to all federal, state and local government web resources and services.